Location: Niles Junction
(37.5763°N, 121.9714°W)
Time: 12:52:23
(UTC+00:00)

BREEZE-M DEB (TANK) - Pass Details

Date: 29 October 2020
Orbit: 313 x 13935 km, 49.6° (Epoch: 01 December)

Event Time Altitude Azimuth Distance (km) Brightness Sun altitude
Exits shadow 12:26:26 44° 313° (NW) 1,409 4.5 -25.1°
Maximum altitude 12:28:35 84° 37° (NE) 1,357 4.6 -24.7°
Drops below altitude 10° 12:48:01 10° 128° (SE) 8,241 9.5 -20.8°
Sets 13:00:06 0° 130° (SE) 11,786 10.4 -18.4°
